Tracking 23762 objects as of 20-Oct-2021
HD Live streaming from Space Station
objects crossing your sky now

YARILO-2

Track YARILO-2 now!
10-day predictions
YARILO-2 is classified as:


NORAD ID: 46491
Int'l Code: 2020-068F
Perigee: 547.8 km
Apogee: 574.6 km
Inclination: 97.7 °
Period: 95.7 minutes
Semi major axis: 6932 km
RCS: Unknown
Launch date: September 28, 2020
Source: (UNK)
Launch site: PLESETSK MISSILE AND SPACE COMPLEX (PKMTR)

Uplink (MHz):
Downlink (MHz): 435.550
Beacon (MHz):
Mode:
Call sign:
Status: Active

aabbcc
Your satellite tracking list
Your tracking list is empty




NASA's NSSDC Master Catalog

Two Line Element Set (TLE):
1 46491U 20068F   21292.81358950  .00001661  00000-0  12377-3 0  9992
2 46491  97.6999 229.8446 0019375  21.5640 338.6397 15.04172561 58052
Source of the keplerian elements: AFSPC